QPF
0.00 0.00 0.00 0.00 0.00 0.00 0.00 0.00 0.01 0.04 0.07 0.12 0.17 0.18 0.20 0.24 0.26 0.19 0.15 0.09 0.04 0.02 0.01 0.01 0.01 0.01 0.01 0.00 0.00 0.00 0.00 0.00 0.00 0.00 0.00 0.00 0.00 0.00 0.00 0.00 0.00 0.00 0.01 0.01
0.00 0.01 0.01 0.00 0.00 0.00 0.00 0.01 0.03 0.05 0.04 0.10 0.17 0.24 0.38 0.43 0.32 0.26 0.22 0.11 0.05 0.02 0.01 0.00 0.00 0.00 0.00 0.00 0.00 0.00 0.00 0.00 0.00 0.00 0.00 0.00 0.00 0.00 0.00 0.00 0.00 0.00 0.00 0.00
0.00 0.01 0.01 0.01 0.00 0.01 0.01 0.01 0.02 0.04 0.03 0.08 0.16 0.34 0.38 0.38 0.34 0.25 0.20 0.13 0.04 0.02 0.01 0.00 0.00 0.00 0.00 0.00 0.00 0.00 0.00 0.00 0.00 0.00 0.00 0.00 0.00 0.00 0.00 0.00 0.00 0.00 0.00 0.00
0.00 0.00 0.00 0.01 0.01 0.01 0.00 0.01 0.00 0.01 0.02 0.11 0.16 0.29 0.32 0.32 0.33 0.20 0.14 0.14 0.03 0.01 0.01 0.00 0.00 0.00 0.00 0.00 0.00 0.00 0.00 0.00 0.00 0.00 0.00 0.00 0.00 0.00 0.00 0.00 0.00 0.00 0.00 0.00
0.00 0.00 0.00 0.00 0.01 0.00 0.00 0.00 0.00 0.01 0.02 0.04 0.07 0.16 0.30 0.27 0.24 0.16 0.07 0.05 0.02 0.01 0.00 0.00 0.00 0.00 0.00 0.00 0.00 0.00 0.00 0.00 0.00 0.00 0.00 0.00 0.00 0.00 0.00 0.00 0.00 0.00 0.00 0.00
0.00 0.00 0.00 0.00 0.00 0.00 0.00 0.00 0.01 0.02 0.02 0.05 0.05 0.11 0.25 0.20 0.12 0.09 0.06 0.02 0.01 0.01 0.00 0.00 0.00 0.00 0.00 0.00 0.00 0.00 0.00 0.00 0.00 0.00 0.00 0.00 0.00 0.00 0.00 0.00 0.00 0.00 0.00 0.00
0.01 0.01 0.00 0.00 0.00 0.00 0.00 0.01 0.01 0.02 0.03 0.08 0.06 0.25 0.46 0.22 0.13 0.07 0.04 0.02 0.01 0.01 0.00 0.00 0.00 0.00 0.00 0.00 0.00 0.00 0.00 0.00 0.00 0.00 0.00 0.00 0.00 0.00 0.00 0.00 0.00 0.00 0.00 0.00
0.02 0.03 0.01 0.00 0.00 0.00 0.00 0.00 0.01 0.01 0.02 0.08 0.13 0.48 0.42 0.10 0.06 0.03 0.02 0.01 0.01 0.01 0.00 0.00 0.00 0.00 0.00 0.00 0.00 0.00 0.00 0.00 0.00 0.00 0.00 0.00 0.00 0.00 0.00 0.00 0.00 0.00 0.00 0.00
0.00 0.00 0.00 0.00 0.00 0.00 0.00 0.00 0.00 0.00 0.01 0.05 0.15 0.23 0.12 0.03 0.02 0.01 0.01 0.01 0.00 0.00 0.00 0.00 0.00 0.00 0.00 0.00 0.00 0.00 0.00 0.00 0.00 0.00 0.00 0.00 0.00 0.00 0.00 0.00 0.00 0.00 0.00 0.00
0.00 0.00 0.00 0.00 0.00 0.00 0.00 0.00 0.00 0.00 0.00 0.03 0.10 0.14 0.08 0.01 0.00 0.00 0.00 0.00 0.00 0.00 0.00 0.00 0.00 0.00 0.00 0.00 0.00 0.00 0.00 0.00 0.00 0.00 0.00 0.00 0.00 0.00 0.00 0.00 0.00 0.00 0.00 0.00
0.00 0.00 0.00 0.00 0.00 0.00 0.00 0.00 0.00 0.00 0.00 0.00 0.03 0.04 0.01 0.00 0.00 0.00 0.00 0.00 0.00 0.00 0.00 0.00 0.00 0.00 0.00 0.00 0.00 0.00 0.00 0.00 0.00 0.00 0.00 0.00 0.00 0.00 0.00 0.00 0.00 0.00 0.00 0.00
0.00 0.00 0.00 0.00 0.00 0.00 0.00 0.00 0.00 0.00 0.00 0.00 0.00 0.00 0.00 0.00 0.00 0.00 0.00 0.00 0.00 0.00 0.00 0.00 0.00 0.00 0.00 0.00 0.00 0.00 0.00 0.00 0.00 0.00 0.00 0.00 0.00 0.00 0.00 0.00 0.00 0.00 0.00 0.00
0.00 0.00 0.00 0.00 0.00 0.00 0.00 0.00 0.00 0.00 0.00 0.00 0.00 0.00 0.00 0.00 0.00 0.00 0.00 0.00 0.00 0.00 0.00 0.00 0.00 0.00 0.00 0.00 0.00 0.00 0.00 0.00 0.00 0.00 0.00 0.00 0.00 0.00 0.00 0.00 0.00 0.00 0.00 0.00
0.00 0.00 0.00 0.00 0.00 0.00 0.00 0.00 0.00 0.00 0.00 0.00 0.00 0.00 0.00 0.00 0.00 0.00 0.00 0.00 0.00 0.00 0.00 0.00 0.00 0.00 0.00 0.00 0.00 0.00 0.00 0.00 0.00 0.00 0.00 0.00 0.00 0.00 0.00 0.00 0.00 0.00 0.00 0.00
0.00 0.00 0.00 0.00 0.00 0.00 0.00 0.00 0.00 0.00 0.00 0.00 0.00 0.00 0.00 0.00 0.00 0.00 0.00 0.00 0.00 0.00 0.00 0.00 0.00 0.00 0.00 0.00 0.00 0.00 0.00 0.00 0.00 0.00 0.00 0.00 0.00 0.00 0.00 0.00 0.00 0.00 0.00 0.00
0.00 0.00 0.00 0.00 0.00 0.00 0.00 0.00 0.00 0.00 0.00 0.00 0.00 0.00 0.00 0.00 0.00 0.00 0.00 0.00 0.00 0.00 0.00 0.00 0.00 0.00 0.00 0.00 0.00 0.00 0.00 0.00 0.00 0.00 0.00 0.00 0.00 0.00 0.00 0.00 0.00 0.00 0.00 0.00
0.00 0.00 0.00 0.00 0.00 0.00 0.00 0.00 0.00 0.00 0.00 0.00 0.00 0.00 0.00 0.00 0.00 0.00 0.00 0.00 0.00 0.00 0.00 0.00 0.00 0.00 0.00 0.00 0.00 0.00 0.00 0.00 0.00 0.00 0.00 0.00 0.00 0.00 0.00 0.00 0.00 0.00 0.00 0.00
0.00 0.00 0.00 0.00 0.00 0.00 0.00 0.00 0.00 0.00 0.00 0.00 0.00 0.00 0.00 0.00 0.00 0.00 0.00 0.00 0.00 0.00 0.00 0.00 0.00 0.00 0.00 0.00 0.00 0.00 0.00 0.00 0.00 0.00 0.00 0.00 0.00 0.00 0.00 0.00 0.00 0.00 0.00 0.00
0.00 0.00 0.00 0.00 0.00 0.00 0.00 0.00 0.00 0.00 0.00 0.00 0.00 0.00 0.00 0.00 0.00 0.00 0.00 0.00 0.00 0.00 0.00 0.00 0.00 0.00 0.00 0.00 0.00 0.00 0.00 0.00 0.00 0.00 0.00 0.00 0.00 0.00 0.00 0.00 0.00 0.00 0.01 0.00
0.00 0.00 0.00 0.00 0.00 0.00 0.00 0.00 0.00 0.00 0.00 0.00 0.00 0.00 0.00 0.00 0.00 0.00 0.00 0.00 0.00 0.00 0.00 0.00 0.00 0.00 0.00 0.00 0.00 0.00 0.00 0.00 0.00 0.00 0.00 0.00 0.00 0.00 0.00 0.00 0.00 0.01 0.01 0.01
0.00 0.00 0.00 0.00 0.00 0.00 0.00 0.00 0.00 0.00 0.00 0.00 0.00 0.00 0.00 0.00 0.00 0.00 0.00 0.00 0.00 0.00 0.00 0.00 0.00 0.00 0.00 0.00 0.00 0.00 0.00 0.00 0.00 0.00 0.00 0.00 0.00 0.00 0.00 0.00 0.00 0.01 0.01 0.01
0.00 0.00 0.00 0.00 0.00 0.00 0.00 0.00 0.00 0.00 0.00 0.00 0.00 0.00 0.00 0.00 0.00 0.00 0.00 0.00 0.00 0.00 0.00 0.00 0.00 0.00 0.00 0.00 0.00 0.00 0.00 0.00 0.00 0.00 0.00 0.00 0.00 0.00 0.00 0.00 0.00 0.01 0.01 0.02
0.00 0.00 0.00 0.00 0.00 0.00 0.00 0.00 0.00 0.00 0.00 0.00 0.00 0.00 0.00 0.00 0.00 0.00 0.00 0.00 0.00 0.00 0.00 0.00 0.00 0.00 0.00 0.00 0.00 0.00 0.00 0.00 0.00 0.00 0.00 0.00 0.00 0.00 0.00 0.00 0.01 0.01 0.02 0.02
0.00 0.00 0.00 0.00 0.00 0.00 0.00 0.00 0.00 0.00 0.00 0.00 0.00 0.00 0.00 0.00 0.00 0.00 0.00 0.00 0.00 0.00 0.00 0.00 0.00 0.00 0.00 0.00 0.00 0.00 0.00 0.00 0.00 0.00 0.00 0.00 0.00 0.00 0.00 0.00 0.01 0.01 0.01 0.01
0.00 0.00 0.00 0.00 0.00 0.00 0.00 0.00 0.00 0.00 0.00 0.00 0.00 0.00 0.00 0.00 0.00 0.00 0.00 0.00 0.00 0.00 0.00 0.00 0.00 0.00 0.00 0.00 0.00 0.00 0.00 0.00 0.00 0.00 0.00 0.00 0.00 0.00 0.00 0.00 0.01 0.01 0.01 0.01
0.00 0.00 0.00 0.00 0.00 0.00 0.00 0.00 0.00 0.00 0.00 0.00 0.00 0.00 0.00 0.00 0.00 0.00 0.00 0.00 0.00 0.00 0.00 0.00 0.00 0.00 0.00 0.00 0.00 0.00 0.00 0.00 0.00 0.00 0.00 0.00 0.00 0.00 0.00 0.00 0.01 0.01 0.01 0.01
MSLP
1012.26 1013.04 1013.51 1013.71 1013.72 1013.68 1013.71 1013.92 1014.36 1015.03 1015.86 1016.72 1017.50 1018.07 1018.38 1018.37 1018.09 1017.61 1017.02 1016.42 1015.89 1015.45 1015.13 1014.91 1014.73 1014.57 1014.40 1014.22 1014.04 1013.89 1013.81 1013.82 1013.92 1014.08 1014.27 1014.41 1014.47 1014.39 1014.18 1013.84 1013.43 1013.01 1012.64 1012.36
1012.39 1013.04 1013.40 1013.54 1013.56 1013.59 1013.76 1014.15 1014.78 1015.61 1016.54 1017.44 1018.18 1018.64 1018.78 1018.59 1018.14 1017.51 1016.82 1016.17 1015.62 1015.21 1014.93 1014.74 1014.59 1014.44 1014.28 1014.09 1013.92 1013.79 1013.76 1013.83 1014.01 1014.26 1014.51 1014.71 1014.78 1014.70 1014.45 1014.07 1013.60 1013.12 1012.69 1012.37
1012.33 1012.80 1013.04 1013.12 1013.16 1013.29 1013.63 1014.22 1015.05 1016.05 1017.08 1017.99 1018.66 1018.98 1018.94 1018.54 1017.90 1017.12 1016.34 1015.65 1015.13 1014.77 1014.57 1014.47 1014.39 1014.30 1014.17 1014.01 1013.85 1013.74 1013.74 1013.85 1014.07 1014.36 1014.65 1014.88 1014.97 1014.89 1014.63 1014.22 1013.72 1013.21 1012.75 1012.41
1012.16 1012.42 1012.50 1012.51 1012.58 1012.84 1013.36 1014.17 1015.22 1016.38 1017.50 1018.42 1019.01 1019.19 1018.95 1018.35 1017.52 1016.60 1015.73 1015.02 1014.53 1014.25 1014.16 1014.16 1014.19 1014.19 1014.12 1014.00 1013.86 1013.76 1013.76 1013.87 1014.09 1014.38 1014.68 1014.92 1015.02 1014.94 1014.69 1014.28 1013.79 1013.28 1012.82 1012.46
1012.01 1012.02 1011.93 1011.86 1011.96 1012.34 1013.05 1014.08 1015.34 1016.66 1017.88 1018.80 1019.32 1019.36 1018.94 1018.15 1017.14 1016.09 1015.14 1014.42 1013.96 1013.77 1013.79 1013.91 1014.06 1014.14 1014.15 1014.07 1013.95 1013.84 1013.81 1013.89 1014.07 1014.33 1014.60 1014.82 1014.92 1014.86 1014.63 1014.26 1013.80 1013.32 1012.88 1012.52
1011.99 1011.74 1011.46 1011.32 1011.44 1011.93 1012.80 1014.03 1015.47 1016.94 1018.23 1019.17 1019.62 1019.54 1018.97 1018.02 1016.86 1015.70 1014.69 1013.96 1013.54 1013.42 1013.53 1013.77 1014.01 1014.19 1014.25 1014.21 1014.09 1013.96 1013.88 1013.90 1014.02 1014.21 1014.43 1014.62 1014.71 1014.67 1014.47 1014.15 1013.75 1013.32 1012.92 1012.59
1012.15 1011.66 1011.22 1011.00 1011.13 1011.69 1012.70 1014.07 1015.65 1017.22 1018.57 1019.50 1019.90 1019.74 1019.05 1017.98 1016.73 1015.49 1014.45 1013.70 1013.31 1013.25 1013.43 1013.74 1014.06 1014.30 1014.41 1014.38 1014.25 1014.09 1013.95 1013.89 1013.92 1014.04 1014.20 1014.34 1014.42 1014.39 1014.24 1013.98 1013.65 1013.29 1012.95 1012.65
1012.50 1011.82 1011.25 1010.95 1011.07 1011.68 1012.75 1014.20 1015.85 1017.46 1018.83 1019.74 1020.10 1019.88 1019.13 1018.01 1016.71 1015.45 1014.39 1013.65 1013.28 1013.25 1013.47 1013.82 1014.18 1014.45 1014.58 1014.55 1014.40 1014.20 1014.00 1013.86 1013.80 1013.83 1013.92 1014.02 1014.08 1014.06 1013.95 1013.76 1013.50 1013.21 1012.93 1012.67
1012.94 1012.15 1011.50 1011.16 1011.26 1011.85 1012.93 1014.38 1016.01 1017.60 1018.92 1019.80 1020.12 1019.87 1019.11 1018.00 1016.72 1015.49 1014.46 1013.75 1013.40 1013.39 1013.61 1013.97 1014.32 1014.59 1014.71 1014.66 1014.49 1014.24 1013.99 1013.78 1013.65 1013.60 1013.62 1013.67 1013.71 1013.70 1013.63 1013.49 1013.30 1013.07 1012.84 1012.62
1013.35 1012.54 1011.88 1011.52 1011.60 1012.15 1013.16 1014.52 1016.05 1017.53 1018.76 1019.57 1019.86 1019.61 1018.90 1017.85 1016.67 1015.52 1014.57 1013.92 1013.60 1013.58 1013.79 1014.11 1014.43 1014.66 1014.75 1014.68 1014.48 1014.20 1013.91 1013.65 1013.46 1013.36 1013.32 1013.33 1013.34 1013.33 1013.28 1013.17 1013.03 1012.86 1012.67 1012.48
1013.60 1012.87 1012.26 1011.94 1011.99 1012.47 1013.36 1014.56 1015.91 1017.22 1018.30 1019.01 1019.27 1019.05 1018.42 1017.50 1016.46 1015.46 1014.64 1014.07 1013.79 1013.77 1013.94 1014.20 1014.46 1014.63 1014.67 1014.56 1014.34 1014.05 1013.74 1013.46 1013.24 1013.10 1013.02 1012.99 1012.98 1012.96 1012.90 1012.82 1012.70 1012.55 1012.39 1012.23
1013.60 1013.03 1012.56 1012.29 1012.34 1012.74 1013.47 1014.46 1015.58 1016.66 1017.56 1018.15 1018.36 1018.19 1017.68 1016.93 1016.09 1015.27 1014.60 1014.14 1013.91 1013.89 1014.01 1014.20 1014.37 1014.47 1014.45 1014.31 1014.07 1013.78 1013.47 1013.19 1012.97 1012.82 1012.72 1012.66 1012.62 1012.57 1012.51 1012.42 1012.30 1012.17 1012.02 1011.86
1013.37 1013.03 1012.72 1012.55 1012.60 1012.91 1013.47 1014.23 1015.08 1015.91 1016.60 1017.06 1017.23 1017.11 1016.73 1016.18 1015.56 1014.95 1014.46 1014.12 1013.94 1013.91 1013.98 1014.09 1014.17 1014.18 1014.10 1013.93 1013.68 1013.40 1013.12 1012.87 1012.67 1012.51 1012.41 1012.33 1012.26 1012.19 1012.09 1011.98 1011.85 1011.70 1011.55 1011.39
1013.01 1012.91 1012.79 1012.73 1012.80 1013.02 1013.41 1013.93 1014.51 1015.08 1015.56 1015.88 1016.01 1015.94 1015.70 1015.35 1014.94 1014.55 1014.23 1014.01 1013.89 1013.85 1013.86 1013.87 1013.86 1013.79 1013.65 1013.45 1013.21 1012.95 1012.71 1012.50 1012.33 1012.19 1012.09 1012.00 1011.90 1011.79 1011.67 1011.52 1011.36 1011.19 1011.01 1010.84
1012.68 1012.79 1012.84 1012.88 1012.96 1013.11 1013.33 1013.62 1013.95 1014.28 1014.56 1014.75 1014.84 1014.81 1014.70 1014.52 1014.31 1014.12 1013.95 1013.83 1013.76 1013.70 1013.65 1013.58 1013.48 1013.32 1013.13 1012.91 1012.68 1012.46 1012.27 1012.11 1011.98 1011.87 1011.77 1011.67 1011.55 1011.40 1011.23 1011.04 1010.84 1010.64 1010.43 1010.23
1012.52 1012.79 1012.96 1013.08 1013.15 1013.21 1013.29 1013.38 1013.48 1013.59 1013.69 1013.77 1013.81 1013.83 1013.81 1013.78 1013.74 1013.70 1013.66 1013.63 1013.57 1013.50 1013.39 1013.24 1013.05 1012.83 1012.60 1012.36 1012.15 1011.97 1011.83 1011.72 1011.63 1011.55 1011.46 1011.35 1011.20 1011.02 1010.80 1010.57 1010.32 1010.07 1009.83 1009.60
1012.63 1012.98 1013.22 1013.34 1013.38 1013.36 1013.29 1013.20 1013.11 1013.04 1012.99 1012.97 1012.98 1013.02 1013.08 1013.16 1013.24 1013.32 1013.37 1013.38 1013.34 1013.24 1013.08 1012.86 1012.61 1012.34 1012.08 1011.84 1011.65 1011.52 1011.42 1011.36 1011.32 1011.26 1011.18 1011.05 1010.87 1010.65 1010.39 1010.10 1009.80 1009.51 1009.22 1008.95
1013.03 1013.37 1013.58 1013.66 1013.62 1013.49 1013.29 1013.05 1012.80 1012.59 1012.43 1012.33 1012.31 1012.36 1012.47 1012.62 1012.79 1012.94 1013.04 1013.08 1013.04 1012.92 1012.72 1012.45 1012.16 1011.87 1011.60 1011.38 1011.23 1011.13 1011.08 1011.07 1011.05 1011.01 1010.92 1010.77 1010.57 1010.30 1009.99 1009.65 1009.30 1008.95 1008.62 1008.30
1013.61 1013.85 1013.96 1013.93 1013.78 1013.52 1013.19 1012.82 1012.45 1012.13 1011.89 1011.74 1011.70 1011.76 1011.90 1012.10 1012.32 1012.51 1012.65 1012.71 1012.67 1012.53 1012.31 1012.03 1011.73 1011.44 1011.19 1011.00 1010.88 1010.83 1010.82 1010.84 1010.84 1010.80 1010.69 1010.52 1010.27 1009.95 1009.59 1009.20 1008.80 1008.40 1008.02 1007.65
1014.17 1014.25 1014.20 1014.02 1013.72 1013.32 1012.86 1012.39 1011.94 1011.55 1011.26 1011.09 1011.04 1011.12 1011.28 1011.51 1011.76 1011.98 1012.14 1012.21 1012.18 1012.05 1011.84 1011.58 1011.31 1011.05 1010.84 1010.70 1010.63 1010.61 1010.64 1010.67 1010.67 1010.61 1010.49 1010.27 1009.98 1009.61 1009.19 1008.74 1008.29 1007.84 1007.41 1007.00
1014.51 1014.40 1014.15 1013.79 1013.32 1012.79 1012.22 1011.66 1011.16 1010.74 1010.44 1010.27 1010.24 1010.33 1010.52 1010.78 1011.05 1011.30 1011.49 1011.58 1011.58 1011.49 1011.32 1011.11 1010.89 1010.70 1010.55 1010.46 1010.44 1010.46 1010.50 1010.53 1010.52 1010.44 1010.28 1010.02 1009.67 1009.24 1008.77 1008.27 1007.76 1007.27 1006.80 1006.36
1014.46 1014.14 1013.69 1013.14 1012.52 1011.87 1011.22 1010.61 1010.08 1009.66 1009.38 1009.24 1009.24 1009.37 1009.60 1009.89 1010.19 1010.47 1010.69 1010.83 1010.89 1010.86 1010.76 1010.63 1010.49 1010.37 1010.29 1010.27 1010.29 1010.34 1010.39 1010.41 1010.38 1010.26 1010.04 1009.73 1009.32 1008.84 1008.31 1007.76 1007.21 1006.68 1006.19 1005.72
1013.93 1013.42 1012.79 1012.08 1011.34 1010.59 1009.89 1009.26 1008.74 1008.35 1008.12 1008.03 1008.08 1008.26 1008.53 1008.86 1009.20 1009.53 1009.80 1010.00 1010.12 1010.17 1010.17 1010.13 1010.09 1010.06 1010.06 1010.09 1010.15 1010.22 1010.27 1010.27 1010.20 1010.03 1009.76 1009.39 1008.92 1008.39 1007.81 1007.22 1006.64 1006.08 1005.57 1005.09
1012.95 1012.28 1011.52 1010.70 1009.87 1009.07 1008.35 1007.74 1007.26 1006.93 1006.76 1006.74 1006.86 1007.09 1007.41 1007.78 1008.17 1008.54 1008.87 1009.13 1009.34 1009.48 1009.58 1009.64 1009.69 1009.75 1009.82 1009.91 1010.00 1010.07 1010.10 1010.08 1009.96 1009.74 1009.42 1008.99 1008.48 1007.90 1007.28 1006.66 1006.05 1005.48 1004.96 1004.49
1011.65 1010.88 1010.03 1009.15 1008.28 1007.48 1006.79 1006.22 1005.82 1005.56 1005.47 1005.52 1005.70 1005.98 1006.35 1006.76 1007.18 1007.60 1007.98 1008.31 1008.59 1008.82 1009.01 1009.17 1009.31 1009.44 1009.57 1009.69 1009.80 1009.87 1009.88 1009.81 1009.65 1009.39 1009.02 1008.55 1007.99 1007.38 1006.73 1006.08 1005.46 1004.89 1004.37 1003.92
1010.25 1009.43 1008.55 1007.66 1006.81 1006.05 1005.42 1004.93 1004.60 1004.43 1004.41 1004.52 1004.76 1005.08 1005.47 1005.91 1006.35 1006.80 1007.21 1007.59 1007.93 1008.23 1008.49 1008.72 1008.93 1009.12 1009.28 1009.43 1009.53 1009.59 1009.58 1009.48 1009.28 1008.98 1008.57 1008.07 1007.49 1006.85 1006.19 1005.53 1004.90 1004.33 1003.82 1003.39
Thickness
5778 5758 5748 5756 5762 5761 5760 5751 5744 5748 5757 5746 5732 5726 5728 5732 5733 5732 5734 5735 5734 5735 5738 5738 5738 5738 5735 5732 5728 5725 5722 5719 5717 5712 5708 5704 5701 5702 5702 5701 5702 5702 5702 5701
5761 5753 5770 5778 5777 5769 5762 5750 5742 5745 5750 5738 5724 5717 5719 5721 5723 5725 5729 5730 5731 5731 5733 5734 5733 5732 5730 5726 5723 5720 5716 5713 5709 5705 5701 5697 5695 5693 5693 5691 5691 5691 5690 5690
5758 5766 5782 5777 5772 5764 5758 5748 5743 5734 5735 5729 5716 5702 5708 5716 5722 5727 5731 5731 5732 5731 5730 5731 5730 5728 5726 5722 5720 5716 5711 5707 5703 5700 5695 5691 5687 5684 5682 5681 5680 5680 5680 5680
5770 5780 5781 5773 5767 5765 5748 5764 5759 5742 5720 5702 5708 5687 5699 5708 5712 5720 5726 5728 5730 5731 5731 5729 5728 5725 5722 5719 5716 5711 5705 5700 5697 5693 5687 5682 5676 5672 5672 5671 5670 5670 5670 5670
5767 5777 5775 5769 5773 5773 5761 5769 5758 5743 5719 5703 5702 5691 5697 5706 5706 5715 5723 5728 5730 5730 5730 5728 5726 5722 5719 5715 5710 5704 5698 5694 5690 5686 5681 5676 5671 5667 5665 5664 5662 5660 5660 5660
5776 5787 5784 5781 5786 5784 5773 5755 5740 5726 5712 5691 5696 5691 5693 5703 5711 5719 5724 5728 5729 5729 5728 5725 5722 5718 5712 5708 5702 5697 5691 5687 5683 5679 5675 5670 5665 5661 5657 5655 5652 5650 5650 5650
5761 5775 5787 5790 5777 5774 5764 5736 5711 5704 5687 5685 5697 5693 5698 5719 5727 5726 5725 5726 5727 5725 5721 5716 5713 5709 5704 5700 5695 5689 5684 5679 5676 5672 5667 5663 5659 5654 5650 5646 5643 5641 5639 5638
5740 5744 5774 5785 5777 5766 5761 5741 5711 5698 5684 5681 5691 5690 5707 5731 5736 5734 5729 5725 5722 5719 5715 5711 5707 5703 5698 5694 5689 5683 5677 5672 5669 5665 5660 5656 5652 5647 5643 5640 5637 5634 5631 5630
5738 5744 5779 5789 5790 5779 5759 5745 5740 5710 5693 5677 5683 5693 5712 5731 5730 5727 5724 5719 5715 5713 5710 5706 5702 5698 5694 5689 5684 5678 5672 5667 5663 5658 5654 5649 5645 5641 5636 5633 5630 5627 5625 5623
5755 5745 5766 5784 5785 5779 5768 5757 5729 5708 5686 5676 5683 5686 5691 5711 5716 5718 5715 5712 5711 5709 5705 5703 5699 5695 5691 5686 5680 5674 5668 5663 5658 5653 5648 5644 5639 5634 5630 5625 5622 5619 5616 5614
5765 5746 5752 5762 5761 5757 5759 5751 5728 5707 5699 5679 5671 5684 5717 5716 5717 5714 5714 5712 5709 5707 5704 5701 5697 5694 5689 5683 5676 5670 5664 5659 5653 5648 5643 5638 5632 5628 5623 5617 5613 5609 5606 5603
5765 5740 5732 5749 5766 5773 5762 5750 5730 5708 5703 5691 5679 5686 5728 5723 5720 5716 5713 5712 5710 5708 5704 5700 5696 5691 5685 5679 5673 5667 5662 5656 5651 5645 5639 5632 5627 5620 5614 5609 5605 5600 5596 5593
5762 5734 5714 5720 5735 5755 5756 5754 5741 5720 5703 5692 5679 5690 5722 5721 5718 5718 5714 5712 5709 5706 5702 5697 5692 5686 5681 5676 5670 5665 5660 5654 5648 5641 5634 5627 5621 5614 5608 5602 5597 5592 5588 5584
5765 5734 5718 5710 5718 5739 5747 5753 5746 5726 5702 5701 5699 5700 5711 5713 5712 5713 5712 5710 5706 5703 5698 5692 5687 5682 5678 5673 5667 5662 5656 5651 5645 5637 5629 5622 5615 5609 5602 5596 5590 5585 5581 5577
5760 5740 5744 5742 5750 5754 5752 5753 5752 5737 5723 5710 5710 5706 5709 5711 5713 5713 5712 5709 5704 5699 5696 5692 5685 5679 5674 5669 5664 5658 5653 5647 5640 5632 5625 5617 5611 5603 5596 5589 5583 5579 5575 5572
5753 5742 5741 5735 5748 5749 5748 5755 5754 5747 5740 5728 5718 5712 5721 5721 5718 5715 5712 5706 5700 5697 5695 5691 5686 5679 5672 5667 5661 5655 5649 5643 5635 5627 5620 5613 5606 5598 5590 5583 5577 5572 5568 5565
5744 5736 5725 5717 5731 5735 5727 5747 5750 5746 5747 5735 5720 5719 5722 5717 5716 5713 5708 5704 5700 5698 5694 5689 5683 5675 5670 5664 5659 5652 5646 5639 5631 5623 5615 5608 5600 5592 5584 5578 5572 5567 5562 5558
5745 5732 5717 5711 5714 5708 5726 5758 5761 5748 5744 5743 5734 5727 5725 5720 5716 5713 5709 5705 5701 5696 5691 5686 5679 5673 5667 5662 5656 5649 5642 5634 5626 5618 5610 5602 5594 5586 5579 5572 5566 5561 5556 5552
5756 5737 5718 5705 5703 5710 5734 5754 5755 5740 5729 5737 5730 5726 5721 5714 5708 5706 5710 5707 5700 5695 5689 5682 5676 5671 5665 5658 5652 5644 5636 5628 5620 5613 5605 5597 5589 5581 5574 5567 5561 5556 5551 5547
5752 5741 5721 5707 5701 5696 5725 5755 5761 5740 5717 5736 5732 5726 5722 5712 5692 5694 5707 5705 5698 5694 5687 5680 5674 5668 5661 5654 5647 5639 5630 5622 5615 5608 5600 5591 5583 5576 5569 5563 5557 5552 5547 5542
5733 5726 5716 5706 5700 5711 5742 5759 5754 5716 5715 5735 5734 5729 5723 5711 5705 5708 5708 5701 5696 5691 5685 5679 5672 5662 5656 5650 5642 5633 5624 5616 5610 5602 5595 5587 5579 5571 5566 5560 5553 5548 5543 5539
5725 5715 5711 5704 5699 5709 5752 5753 5736 5732 5743 5740 5736 5732 5725 5719 5716 5711 5705 5698 5693 5687 5683 5676 5666 5658 5651 5644 5636 5627 5618 5612 5605 5597 5589 5582 5574 5568 5563 5555 5550 5544 5539 5534
5732 5729 5722 5719 5721 5743 5752 5753 5757 5752 5744 5742 5737 5734 5728 5719 5715 5710 5703 5695 5690 5685 5678 5671 5662 5653 5645 5638 5630 5622 5614 5607 5599 5591 5583 5577 5571 5564 5558 5552 5547 5541 5536 5531
5737 5746 5733 5729 5736 5749 5754 5757 5759 5755 5750 5748 5744 5738 5730 5722 5716 5709 5701 5692 5686 5680 5674 5666 5658 5648 5640 5632 5625 5617 5610 5602 5594 5586 5579 5573 5568 5562 5556 5550 5544 5538 5534 5530
5734 5738 5729 5726 5738 5748 5756 5758 5760 5759 5755 5749 5744 5739 5732 5724 5716 5708 5699 5691 5683 5676 5670 5662 5652 5644 5636 5628 5620 5613 5605 5598 5589 5581 5575 5570 5565 5559 5554 5549 5543 5538 5534 5529
5737 5732 5723 5722 5739 5735 5742 5754 5759 5755 5751 5747 5741 5735 5731 5725 5716 5707 5698 5690 5681 5673 5665 5656 5648 5639 5631 5623 5615 5608 5601 5593 5585 5578 5572 5567 5563 5558 5552 5547 5545 5542 5536 5533